Location: Kidron
(40.7409°N, 81.7449°W)
Time: 05:00:40
(UTC+00:00)

Daily predictions for brighter satellites

Satellite Brightness Start Highest point End
(mag) Time Altitude Azimuth Time Altitude Azimuth Time Altitude Azimuth
ISS -2.0 00:00:22 10° NW 00:02:04 25° NNW 00:02:04 25° NNW
Cosmos 2266 Rocket 4.0 00:00:10 10° N 00:06:31 63° E 00:12:51 10° SSE
SL-16 R/B 3.4 00:02:01 10° N 00:05:05 27° NNE 00:05:05 27° NNE
Cosmos 2082 Rocket 3.2 00:02:11 10° SW 00:07:36 44° WNW 00:11:58 15° N
ATLAS 5 CENTAUR R/B 3.7 00:05:28 10° NNW 00:08:17 21° N 00:08:17 21° N
Meteor 2-15 Rocket 4.3 00:06:49 10° S 00:12:54 72° E 00:15:51 32° NNE
Cosmos 1328 Rocket 4.4 00:12:37 10° SSW 00:16:55 50° W 00:19:19 24° NNW
CZ-2C R/B 3.3 00:17:29 10° SW 00:19:37 20° S 00:19:37 20° S
Meteor 1-27 Rocket 4.3 00:15:30 10° S 00:19:10 41° SSE 00:19:10 41° SSE
Cosmos 2278 3.9 00:15:30 10° NNW 00:21:11 71° WSW 00:26:49 10° SSE
Lacrosse 5 rocket 3.7 00:18:13 10° NNW 00:18:55 14° NNW 00:18:55 14° NNW
ARGOS 4.1 00:21:57 10° S 00:27:08 46° W 00:32:21 10° NNW
IRAS Rocket 4.2 00:28:34 68° SSE 00:28:34 68° SSE 00:33:27 10° SSW
COSMOS 2455 4.5 00:28:00 10° WSW 00:33:08 28° NW 00:36:35 17° N
Cosmos 1655 Rocket 4.2 00:32:43 10° NNW 00:39:06 71° W 00:45:24 10° S
DMSP B5D2-2 4.3 00:40:33 67° W 00:40:33 67° W 00:45:38 10° SSW
GEOS 3 Rocket 4.4 00:46:40 46° NW 00:46:40 46° NW 00:50:15 10° NW
CZ-4C R/B 3.9 01:09:56 10° NW 01:17:12 47° WSW 01:21:47 26° S
CENTAUR R/B 4.3 08:51:33 25° NE 08:51:33 25° NE 08:54:21 10° NE
Cosmos 2344 4.2 09:14:06 45° NNE 09:14:06 45° NNE 09:19:10 10° NNE
USA 238 DEB 3.9 09:40:07 56° NNE 09:40:07 56° NNE 09:45:25 10° NNE
USA 238 3.9 09:40:11 57° NNE 09:40:11 57° NNE 09:45:31 10° NNE
BREEZE-M DEB (TANK) 3.7 09:43:04 54° ENE 09:43:04 54° ENE 09:52:30 10° ESE
USA 215 4.3 09:43:08 10° E 09:48:52 34° NNE 09:50:35 30° N
Cosmos 921 Rocket 4.4 09:53:48 37° ENE 09:53:54 37° ENE 09:58:03 10° SE
H-2A R/B 4.4 09:57:02 10° NNE 10:00:25 31° E 10:03:47 10° SSE
Cosmos 1867 3.8 10:03:11 60° S 10:03:11 60° S 10:07:39 10° SSE
Cosmos 2208 Rocket 4.1 10:02:48 74° SSE 10:02:48 74° SSE 10:07:39 10° SSE
Cosmos 2369 Rocket 2.2 10:05:54 32° S 10:08:33 76° ESE 10:14:08 10° NNE
Meteor 2-13 Rocket 4.5 10:07:33 10° S 10:13:39 78° E 10:19:44 10° N
Cosmos 1486 Rocket 4.2 10:09:51 10° S 10:15:07 72° ESE 10:20:24 10° NNE
Cosmos 1656 Rocket 3.7 10:19:36 10° SSW 10:24:59 74° ESE 10:30:25 10° NNE
Iridium 2 3.9 10:22:21 10° S 10:26:06 66° E 10:26:47 53° NE
COSMO-SKYMED 1 2.9 10:28:14 10° SSE 10:32:31 64° ENE 10:35:30 19° N
Cosmos 1943 Rocket 3.4 10:35:16 25° NNW 10:35:16 25° NNW 10:38:14 10° N
CZ-2C R/B 2.9 10:28:31 10° SSE 10:33:59 72° ENE 10:39:21 10° N
CENTAUR R/B 3.3 10:38:46 31° NW 10:38:55 31° NW 10:45:07 10° NNE
Envisat 2.9 10:35:36 10° NNE 10:40:43 84° WNW 10:45:47 10° SSW
TSX-5 4.3 10:38:24 32° NNW 10:41:04 81° WSW 10:45:35 10° SSE
Cosmos 968 Rocket 4.2 10:45:19 33° NW 10:45:19 33° NW 10:48:56 10° N
Cosmos 2098 Rocket 2.8 10:41:24 10° SSW 10:45:09 71° W 10:49:56 10° N
DELTA 2 R/B (1) 3.7 10:47:13 29° WSW 10:50:01 68° SSE 10:55:32 10° E
Genesis I 3.8 10:52:06 39° WSW 10:52:06 39° WSW 10:55:49 10° S
Cosmos 2279 Rocket 3.9 10:48:09 10° N 10:54:22 88° W 11:00:34 10° S
SKYMED 3 4.5 10:52:18 10° S 10:56:37 68° WSW 10:59:53 17° NNW
NOSS 3-2 (C) 4.2 11:00:56 26° WNW 11:02:04 28° NW 11:07:34 10° NNE
CZ-4B R/B 4.5 11:02:24 10° E 11:03:35 12° ENE 11:04:48 10° NE
Cosmos 1812 3.0 11:03:50 35° WNW 11:04:41 41° W 11:08:17 10° SSW
CBERS 1 LM4 rocket 4.4 11:01:27 10° N 11:06:14 59° WNW 11:11:11 10° SSW
MOS 1-B Rocket 4.3 11:00:48 10° S 11:06:55 45° W 11:12:26 10° NNW
Cosmos 1515 Rocket 4.2 11:02:40 10° N 11:06:59 57° E 11:11:14 10° SSE
ATLAS 3B R/B 3.7 11:01:00 10° S 11:07:06 46° ESE 11:13:29 10° NE
Cosmos 1354 Rocket 3.9 11:03:20 10° SSW 11:08:36 79° WNW 11:13:56 10° NNE
SJ 16-02 2.4 11:05:30 10° S 11:09:40 47° ESE 11:13:53 10° NNE
Cosmos 1634 Rocket 4.4 11:05:11 10° NNW 11:10:58 40° W 11:16:41 10° SSW
Meteor PRIRODA 4.2 11:08:23 10° NNE 11:11:59 60° E 11:15:33 10° S
ADEOS 3.5 11:09:39 10° NNE 11:14:55 81° WNW 11:20:07 10° SSW
CZ-4B R/B 4.4 11:11:35 10° N 11:15:48 42° WNW 11:20:00 10° SW
Landsat 5 3.8 11:13:12 10° S 11:17:37 53° W 11:22:01 10° NNW
Meteor 2-6 Rocket 4.2 11:12:43 10° NNW 11:18:01 56° W 11:23:15 10° S
CZ-4C R/B 2.7 11:16:41 10° S 11:19:47 59° W 11:22:18 14° NNW
SKYMED 2 4.1 11:16:39 10° SSW 11:20:39 36° W 11:24:07 13° NNW
SL-8 R/B 3.9 11:17:47 21° NW 11:20:58 65° NNE 11:25:42 10° ESE
ATLAS 5 CENTAUR R/B 1.8 11:17:26 10° SSW 11:21:07 61° ESE 11:25:12 10° NE
Cosmos 1500 Rocket 4.1 11:19:44 10° S 11:24:07 63° E 11:28:33 10° NNE
Meteor 1-31 Rocket 3.6 11:23:29 10° N 11:26:53 29° WNW 11:30:16 10° SW
CZ-2C R/B 3.0 11:22:39 10° NNE 11:27:34 89° ESE 11:32:42 10° SSW
Meteor 2-15 4.4 11:22:42 10° NNW 11:28:45 72° W 11:34:44 10° S
SJ-7 4.4 11:26:57 10° N 11:31:07 62° WNW 11:35:10 10° SSW
USA 215 3.3 11:24:52 10° SE 11:31:25 88° SW 11:37:55 10° NW
Cosmos 921 Rocket 4.5 11:30:39 17° WNW 11:31:54 19° W 11:35:03 10° SW
Cosmos 1833 4.3 11:27:49 10° NNW 11:33:25 59° WSW 11:39:02 10° S
H-2A R/B 4.2 11:31:50 10° NNW 11:34:45 16° WNW 11:36:41 10° WSW
Alouette 2 Rocket 4.1 11:33:58 10° N 11:37:35 49° ENE 11:41:06 10° SSE
H-2A R/B 2.3 11:33:53 10° SSE 11:38:06 74° ENE 11:42:28 10° N
Meteor 1-10 Rocket 4.3 11:33:32 10° NNW 11:38:54 52° W 11:44:15 10° S
Meteor 2-19 Rocket 4.4 11:34:03 10° SSW 11:40:02 63° W 11:46:03 10° N
Cosmos 1151 Rocket 4.4 11:42:46 10° NW 11:45:51 19° W 11:48:54 10° SW
H-2A R/B 3.7 11:42:12 10° NNE 11:46:45 37° E 11:51:17 10° SSE
Cosmos 2297 Rocket 4.1 11:46:17 10° N 11:50:52 24° NE 11:55:26 10° ESE
BREEZE-M DEB (TANK) 3.9 11:41:05 10° WNW 11:52:51 87° SSW 11:56:19 10° SE
Cosmos 2369 Rocket 3.5 11:49:33 10° W 11:53:12 17° NW 11:56:52 10° N
SL-27 R/B 2.6 11:51:34 10° NNW 11:55:04 53° WSW 11:58:30 10° S
